DW2973 Weather Reports


time (UTC)temp
F
wind
direction
speed
knots
gust
knots
rain 1hr
in
rain 24hr
in
rain mn
in
humidity
%
barometer
mb
20260509094539 64 157 0.0 0.0 0.00 0.00 0.00 23 1022.3
20260509093033 64 82 0.0 0.0 0.00 0.00 0.00 24 1022.3
20260509091539 62 44 0.0 0.0 0.00 0.00 0.00 23 1022.3
20260509090037 63 149 0.0 0.0 0.00 0.00 0.00 25 1022.4
20260509084525 61 115 0.0 0.0 0.00 0.00 0.00 31 1022.4
20260509083022 59 113 0.0 0.0 0.00 0.00 0.00 31 1022.4
20260509081525 59 91 0.0 0.0 0.00 0.00 0.00 32 1022.5
20260509080016 57 117 0.0 0.0 0.00 0.00 0.00 38 1022.6
20260509074512 54 116 0.0 0.0 0.00 0.00 0.00 41 1022.7
20260509073007 53 109 0.0 0.0 0.00 0.00 0.00 43 1022.7
20260509071505 52 116 0.0 0.0 0.00 0.00 0.00 49 1022.8
20260509070009 51 116 0.0 0.0 0.00 0.00 0.00 48 1022.9
20260509064501 51 137 0.0 0.0 0.00 0.00 0.00 53 1022.9
20260509063059 51 137 0.0 0.0 0.00 0.00 0.00 56 1023.0
20260509061556 50 137 0.0 0.0 0.00 0.00 0.00 62 1022.9
20260509060052 46 186 0.0 0.0 0.00 0.00 0.00 70 1022.9
20260509054558 44 190 0.0 0.0 0.00 0.00 0.00 73 1023.0
20260509053048 42 190 0.0 0.0 0.00 0.00 0.00 75 1023.0
20260509051542 41 194 0.0 0.0 0.00 0.00 0.00 77 1022.9
20260509050042 39 194 0.0 0.0 0.00 0.00 0.00 79 1023.1
20260509044541 39 194 0.0 0.0 0.00 0.00 0.00 80 1023.0
20260509043040 39 194 0.0 0.0 0.00 0.00 0.00 81 1023.1
20260509041608 38 194 0.0 0.0 0.00 0.00 0.00 80 1023.0
20260509040040 37 194 0.0 0.0 0.00 0.00 0.00 79 1022.9
20260509034538 37 194 0.0 0.0 0.00 0.00 0.00 76 1023.1
20260509033038 37 194 0.0 0.0 0.00 0.00 0.00 74 1023.1
20260509031538 37 194 0.0 0.0 0.00 0.00 0.00 75 1023.1
20260509030035 37 194 0.0 0.0 0.00 0.00 0.00 73 1023.2
20260509024534 37 194 0.0 0.0 0.00 0.00 0.00 73 1023.2
20260509023034 37 194 0.0 0.0 0.00 0.00 0.00 74 1023.2
20260509021536 37 194 0.0 0.0 0.00 0.00 0.00 76 1023.4
20260509020043 37 194 0.0 0.0 0.00 0.00 0.00 76 1023.3
20260509014531 37 194 0.0 0.0 0.00 0.00 0.00 74 1023.5
20260509013037 38 194 0.0 0.0 0.00 0.00 0.00 73 1023.6
20260509011525 38 194 0.0 0.0 0.00 0.00 0.00 72 1023.6
20260509010024 38 194 0.0 0.0 0.00 0.00 0.00 72 1023.7
20260509004522 39 194 0.0 0.0 0.00 0.00 0.00 71 1023.7
20260509003020 39 194 0.0 0.0 0.00 0.00 0.00 71 1023.8
20260509001519 39 194 0.0 0.0 0.00 0.00 0.00 73 1023.9
20260509000018 39 194 0.0 0.0 0.00 0.00 0.00 73 1023.9
20260508234516 40 194 0.0 0.0 0.00 0.00 0.00 75 1024.0
20260508233017 40 194 0.0 0.0 0.00 0.00 0.00 77 1024.1
20260508231512 41 194 0.0 0.0 0.00 0.00 0.00 79 1024.1
20260508230010 41 194 0.0 0.0 0.00 0.00 0.00 79 1024.0
20260508224514 41 194 0.0 0.0 0.00 0.00 0.00 76 1024.1
20260508223006 42 194 0.0 0.0 0.00 0.00 0.00 74 1024.0
20260508221507 42 194 0.0 0.0 0.00 0.00 0.00 74 1023.9
20260508220003 42 194 0.0 0.0 0.00 0.00 0.00 73 1023.9
20260508214511 42 194 0.0 0.0 0.00 0.00 0.00 73 1024.0
20260508213002 43 194 0.0 0.0 0.00 0.00 0.00 72 1024.0
20260508211600 43 194 0.0 0.0 0.00 0.00 0.00 71 1023.8
20260508210100 44 194 0.0 0.0 0.00 0.00 0.00 69 1023.7
20260508204601 45 194 0.0 0.0 0.00 0.00 0.00 67 1023.7
20260508203057 46 194 0.0 0.0 0.00 0.00 0.00 65 1023.5
20260508201556 46 194 0.0 0.0 0.00 0.00 0.00 63 1023.4
20260508200110 47 194 0.0 0.0 0.00 0.00 0.00 62 1023.3
20260508194555 48 194 0.0 0.0 0.00 0.00 0.00 61 1023.2
20260508193132 50 194 0.0 0.0 0.00 0.00 0.00 60 1023.0
20260508191554 51 194 0.0 0.0 0.00 0.00 0.00 59 1022.8
20260508190054 53 194 0.0 0.0 0.00 0.00 0.00 56 1022.8
20260508184556 54 194 0.0 0.0 0.00 0.00 0.00 52 1022.6
20260508183108 56 194 0.0 0.0 0.00 0.00 0.00 50 1022.5
20260508181602 56 194 0.0 0.0 0.00 0.00 0.00 48 1022.4
20260508180048 57 191 0.0 0.0 0.00 0.00 0.00 45 1022.2
20260508174551 58 192 0.0 0.0 0.00 0.00 0.00 43 1022.2
20260508173046 59 237 0.0 0.0 0.00 0.00 0.00 40 1022.1
20260508171547 61 236 0.0 0.0 0.00 0.00 0.00 36 1022.1
20260508170053 63 173 0.0 0.0 0.00 0.00 0.00 33 1021.9
20260508164548 64 191 0.0 0.0 0.00 0.00 0.00 33 1021.8
20260508163045 64 175 0.0 0.0 0.00 0.00 0.00 32 1022.0
20260508161546 65 74 0.0 0.0 0.00 0.00 0.00 27 1021.8
20260508160044 65 250 0.0 0.0 0.00 0.00 0.00 29 1021.8
20260508154605 65 172 0.0 0.0 0.00 0.00 0.00 26 1021.7
20260508153043 66 155 0.0 0.0 0.00 0.00 0.00 24 1021.8
20260508151540 65 142 0.0 0.0 0.00 0.00 0.00 25 1021.7
20260508150040 65 153 0.0 0.0 0.00 0.00 0.00 25 1021.8
20260508144549 66 202 0.0 0.0 0.00 0.00 0.00 24 1022.0
20260508143036 65 133 0.0 0.0 0.00 0.00 0.00 28 1022.1
20260508141536 65 132 0.0 0.0 0.00 0.00 0.00 28 1022.0
20260508140036 67 138 0.0 0.0 0.00 0.00 0.00 28 1021.9
20260508134545 66 141 0.0 0.0 0.00 0.00 0.00 29 1022.1
20260508133046 65 157 0.0 0.0 0.00 0.00 0.00 37 1022.1
20260508131532 64 241 1.7 0.0 0.00 0.00 0.00 36 1022.1
20260508130034 66 99 0.0 0.0 0.00 0.00 0.00 33 1022.3
20260508124536 66 194 0.0 0.0 0.00 0.00 0.00 35 1022.1
20260508123043 65 264 0.0 0.0 0.00 0.00 0.00 34 1022.2
20260508121530 65 184 0.9 0.0 0.00 0.00 0.00 35 1022.2
20260508120027 64 204 0.0 0.0 0.00 0.00 0.00 35 1022.5
20260508114525 64 238 0.9 0.0 0.00 0.00 0.00 35 1022.3
20260508113024 63 231 0.0 0.0 0.00 0.00 0.00 34 1022.5
20260508111532 63 236 1.7 0.0 0.00 0.00 0.00 35 1022.5
20260508110025 64 144 0.9 0.0 0.00 0.00 0.00 36 1022.5
20260508104522 63 215 0.9 0.0 0.00 0.00 0.00 36 1022.5
20260508103022 63 196 0.0 0.0 0.00 0.00 0.00 39 1022.4
20260508101519 63 206 0.9 0.0 0.00 0.00 0.00 43 1022.3
20260508100019 64 182 0.9 0.0 0.00 0.00 0.00 44 1022.3